Tracking 27086 objects as of 22-Mar-2023
HD Live streaming from Space Station
objects crossing your sky now

PAINANI-2

Track PAINANI-2 now!
10-day predictions


NORAD ID: 48928
Int'l Code: 2021-059BB
Perigee: 497.0 km
Apogee: 515.5 km
Inclination: 97.6 °
Period: 94.6 minutes
Semi major axis: 6877 km
RCS: Unknown
Launch date: June 30, 2021
Source: Mexico (MEX)
Launch site: AIR FORCE EASTERN TEST RANGE (AFETR)
Your satellite tracking list
Your tracking list is empty




NASA's NSSDC Master Catalog

Two Line Element Set (TLE):
1 48928U 21059BB  23080.61350452  .00019871  00000-0  86386-3 0  9997
2 48928  97.5873 216.3269 0013508 212.8004 147.2394 15.22230294 96033
Source of the keplerian elements: AFSPC